KOREASAT 5A (42984 NORAD) Tracking and Keplerian Element Data

This shows tracking and keplerian element data for the satellite.

Feedback or suggestion? Click here.




ElementValue
Catalog42984
NameKOREASAT 5A
Epoch Orbit254
Epoch Day198.86455494
Epoch Year2018
RAAN103.8216
Inclination0.0205
Eccentricity0.0001042
Argument of Perigee350.4041
Mean Anonmoly265.7678
Mean Motion1.00270583
Decay Rate-3.78E-06
L11 42984U 17067A 18198.86455494 -.00000378 00000-0 00000-0 0 9999
L22 42984 0.0205 103.8216 0001042 350.4041 265.7678 1.00270583 2549

Live tracking and technical data element details for KOREASAT 5A (NORAD 42984). KOREASAT 5A can be tracked NOW for your location showing map with azimuth and elevation plus other details from your city location.

Track the satellite on the map from your city or location and see movement details for azimuth, elevation, latitude, longitude, range, height, and movement on the map or in text.







IsCatalogInMostPopularTable: catalog: 42984, numindb: 57
Update: records affected: 1



GetName: 42984 KOREASAT 5A

Hit Count: updated at: Fri, 20 Jul 2018 20:36:27 GMT